QPF
0.01 0.00 0.01 0.01 0.01 0.01 0.02 0.03 0.02 0.02 0.02 0.02 0.01 0.01 0.01 0.01 0.01 0.01 0.01 0.01 0.01 0.02 0.02 0.02 0.02 0.02 0.02 0.01 0.01 0.02 0.02 0.02 0.02 0.02 0.01 0.01 0.01 0.03 0.02 0.03 0.02 0.02 0.02
0.01 0.01 0.01 0.01 0.02 0.02 0.02 0.02 0.02 0.02 0.02 0.02 0.01 0.01 0.00 0.01 0.01 0.01 0.01 0.01 0.02 0.02 0.02 0.02 0.03 0.02 0.02 0.01 0.01 0.02 0.03 0.03 0.02 0.02 0.01 0.01 0.02 0.03 0.02 0.03 0.02 0.02 0.03
0.02 0.01 0.01 0.01 0.01 0.01 0.02 0.03 0.03 0.03 0.03 0.02 0.01 0.01 0.01 0.01 0.01 0.01 0.01 0.01 0.01 0.01 0.01 0.01 0.02 0.02 0.02 0.02 0.02 0.02 0.03 0.03 0.02 0.02 0.02 0.02 0.04 0.04 0.03 0.03 0.02 0.02 0.02
0.02 0.02 0.01 0.01 0.01 0.01 0.01 0.02 0.03 0.03 0.02 0.02 0.02 0.01 0.01 0.01 0.02 0.02 0.01 0.01 0.01 0.01 0.01 0.02 0.02 0.02 0.03 0.04 0.04 0.02 0.02 0.02 0.01 0.01 0.02 0.03 0.07 0.05 0.04 0.02 0.02 0.02 0.01
0.02 0.02 0.02 0.01 0.01 0.01 0.01 0.01 0.02 0.02 0.02 0.02 0.02 0.02 0.02 0.01 0.02 0.02 0.03 0.02 0.01 0.01 0.01 0.01 0.02 0.05 0.07 0.08 0.05 0.02 0.01 0.01 0.01 0.02 0.02 0.05 0.09 0.05 0.03 0.01 0.01 0.02 0.02
0.00 0.01 0.01 0.01 0.01 0.01 0.01 0.01 0.01 0.01 0.02 0.02 0.01 0.01 0.01 0.02 0.02 0.03 0.02 0.01 0.02 0.01 0.01 0.02 0.04 0.06 0.08 0.06 0.04 0.02 0.02 0.02 0.02 0.02 0.02 0.08 0.07 0.03 0.02 0.01 0.01 0.01 0.03
0.00 0.00 0.00 0.01 0.01 0.01 0.01 0.01 0.01 0.01 0.01 0.01 0.01 0.01 0.01 0.02 0.03 0.02 0.02 0.01 0.01 0.01 0.02 0.03 0.04 0.05 0.06 0.04 0.03 0.02 0.02 0.02 0.02 0.02 0.03 0.08 0.04 0.02 0.02 0.01 0.01 0.01 0.03
0.00 0.00 0.00 0.01 0.01 0.01 0.01 0.01 0.01 0.01 0.01 0.01 0.01 0.02 0.02 0.03 0.03 0.02 0.02 0.01 0.01 0.01 0.02 0.03 0.03 0.03 0.04 0.04 0.02 0.02 0.02 0.02 0.02 0.02 0.04 0.04 0.02 0.02 0.02 0.02 0.02 0.02 0.02
0.00 0.01 0.01 0.01 0.01 0.01 0.01 0.01 0.01 0.01 0.01 0.01 0.01 0.02 0.02 0.03 0.03 0.03 0.02 0.01 0.01 0.01 0.01 0.01 0.02 0.02 0.03 0.03 0.02 0.01 0.01 0.01 0.02 0.03 0.05 0.03 0.02 0.02 0.02 0.02 0.03 0.03 0.03
0.01 0.01 0.01 0.01 0.01 0.01 0.01 0.01 0.01 0.01 0.01 0.01 0.02 0.02 0.02 0.02 0.03 0.03 0.03 0.02 0.02 0.01 0.01 0.01 0.01 0.02 0.02 0.02 0.01 0.01 0.01 0.02 0.03 0.04 0.05 0.04 0.03 0.02 0.02 0.02 0.02 0.03 0.03
0.01 0.01 0.01 0.01 0.01 0.01 0.02 0.02 0.01 0.01 0.01 0.02 0.02 0.02 0.02 0.02 0.03 0.04 0.04 0.03 0.02 0.02 0.01 0.01 0.01 0.02 0.02 0.01 0.01 0.01 0.02 0.03 0.03 0.04 0.04 0.04 0.03 0.03 0.03 0.02 0.02 0.03 0.03
0.01 0.01 0.01 0.01 0.01 0.01 0.02 0.03 0.02 0.02 0.02 0.02 0.02 0.03 0.03 0.03 0.03 0.04 0.05 0.06 0.04 0.02 0.01 0.01 0.01 0.02 0.01 0.01 0.01 0.01 0.01 0.02 0.02 0.03 0.04 0.03 0.03 0.03 0.03 0.04 0.04 0.04 0.03
0.01 0.01 0.01 0.01 0.02 0.02 0.02 0.03 0.03 0.02 0.02 0.02 0.02 0.03 0.03 0.03 0.04 0.04 0.04 0.05 0.07 0.04 0.03 0.02 0.02 0.02 0.02 0.01 0.01 0.01 0.01 0.01 0.02 0.03 0.03 0.02 0.02 0.02 0.02 0.02 0.03 0.04 0.04
0.02 0.01 0.01 0.01 0.02 0.02 0.02 0.03 0.03 0.03 0.03 0.03 0.03 0.02 0.02 0.03 0.03 0.03 0.04 0.04 0.04 0.04 0.04 0.04 0.03 0.02 0.02 0.02 0.02 0.01 0.01 0.01 0.01 0.02 0.02 0.02 0.01 0.02 0.02 0.02 0.02 0.03 0.03
0.02 0.02 0.01 0.01 0.02 0.02 0.02 0.03 0.03 0.04 0.04 0.04 0.03 0.03 0.02 0.02 0.03 0.03 0.03 0.04 0.03 0.03 0.03 0.04 0.04 0.04 0.04 0.03 0.02 0.02 0.01 0.01 0.01 0.02 0.02 0.02 0.02 0.02 0.02 0.02 0.02 0.02 0.03
0.03 0.02 0.01 0.01 0.01 0.02 0.02 0.02 0.03 0.03 0.04 0.04 0.03 0.02 0.02 0.02 0.02 0.02 0.02 0.02 0.02 0.02 0.02 0.02 0.03 0.03 0.04 0.04 0.03 0.03 0.02 0.02 0.02 0.02 0.02 0.02 0.03 0.03 0.02 0.02 0.02 0.03 0.04
0.04 0.03 0.02 0.01 0.01 0.01 0.02 0.02 0.02 0.02 0.03 0.02 0.02 0.02 0.02 0.02 0.02 0.01 0.01 0.01 0.01 0.01 0.02 0.02 0.02 0.03 0.03 0.03 0.04 0.03 0.03 0.02 0.02 0.03 0.03 0.03 0.03 0.03 0.04 0.04 0.04 0.04 0.06
0.04 0.05 0.04 0.02 0.01 0.01 0.02 0.02 0.01 0.01 0.01 0.01 0.02 0.01 0.01 0.02 0.02 0.02 0.02 0.02 0.02 0.02 0.02 0.03 0.02 0.03 0.03 0.03 0.03 0.03 0.03 0.02 0.02 0.02 0.03 0.04 0.04 0.04 0.05 0.05 0.05 0.05 0.06
0.03 0.05 0.05 0.03 0.01 0.01 0.01 0.01 0.01 0.01 0.01 0.01 0.01 0.02 0.03 0.02 0.02 0.02 0.03 0.03 0.03 0.03 0.03 0.04 0.03 0.02 0.02 0.03 0.03 0.03 0.02 0.02 0.02 0.02 0.03 0.04 0.03 0.03 0.04 0.05 0.05 0.05 0.05
0.02 0.03 0.04 0.03 0.02 0.02 0.01 0.01 0.01 0.01 0.01 0.02 0.02 0.02 0.02 0.03 0.03 0.03 0.03 0.02 0.02 0.03 0.04 0.04 0.04 0.04 0.03 0.03 0.03 0.03 0.03 0.02 0.02 0.02 0.02 0.02 0.02 0.02 0.03 0.04 0.04 0.04 0.04
0.02 0.02 0.03 0.03 0.03 0.02 0.02 0.01 0.01 0.01 0.01 0.01 0.02 0.02 0.02 0.02 0.02 0.03 0.03 0.04 0.05 0.05 0.04 0.04 0.04 0.04 0.04 0.04 0.04 0.05 0.04 0.04 0.03 0.03 0.03 0.03 0.02 0.02 0.02 0.02 0.02 0.02 0.02
0.03 0.03 0.02 0.03 0.02 0.02 0.02 0.01 0.01 0.01 0.01 0.02 0.02 0.02 0.02 0.02 0.02 0.02 0.02 0.03 0.03 0.04 0.04 0.04 0.04 0.05 0.05 0.06 0.05 0.05 0.04 0.04 0.04 0.04 0.04 0.03 0.02 0.02 0.02 0.02 0.02 0.02 0.02
0.05 0.03 0.03 0.02 0.02 0.03 0.02 0.02 0.02 0.02 0.02 0.02 0.03 0.02 0.02 0.02 0.02 0.02 0.02 0.03 0.03 0.04 0.05 0.04 0.04 0.05 0.05 0.06 0.06 0.05 0.04 0.03 0.03 0.03 0.03 0.02 0.02 0.02 0.02 0.01 0.01 0.01 0.02
0.06 0.05 0.04 0.04 0.04 0.03 0.03 0.03 0.03 0.03 0.03 0.03 0.03 0.03 0.03 0.02 0.02 0.02 0.02 0.02 0.03 0.03 0.04 0.04 0.04 0.04 0.04 0.04 0.05 0.05 0.05 0.04 0.03 0.02 0.02 0.02 0.02 0.02 0.01 0.01 0.01 0.01 0.01
0.04 0.04 0.05 0.05 0.05 0.04 0.04 0.04 0.04 0.04 0.03 0.03 0.03 0.03 0.03 0.03 0.02 0.02 0.02 0.02 0.02 0.02 0.03 0.03 0.03 0.03 0.03 0.03 0.03 0.03 0.04 0.03 0.03 0.03 0.02 0.02 0.02 0.01 0.01 0.01 0.01 0.01 0.01
0.04 0.05 0.04 0.04 0.04 0.04 0.04 0.04 0.04 0.04 0.04 0.04 0.03 0.03 0.03 0.02 0.02 0.02 0.02 0.02 0.02 0.02 0.02 0.02 0.03 0.02 0.02 0.02 0.03 0.03 0.03 0.03 0.03 0.03 0.03 0.03 0.02 0.01 0.01 0.01 0.01 0.01 0.01
MSLP
1019.55 1018.94 1018.30 1017.62 1016.89 1016.13 1015.35 1014.56 1013.79 1013.07 1012.41 1011.83 1011.34 1010.93 1010.62 1010.38 1010.21 1010.10 1010.05 1010.05 1010.11 1010.20 1010.33 1010.49 1010.67 1010.86 1011.05 1011.25 1011.45 1011.65 1011.86 1012.07 1012.29 1012.51 1012.73 1012.93 1013.10 1013.21 1013.26 1013.24 1013.15 1013.00 1012.81
1019.45 1018.86 1018.26 1017.62 1016.95 1016.24 1015.50 1014.75 1014.01 1013.30 1012.64 1012.04 1011.50 1011.04 1010.66 1010.34 1010.09 1009.90 1009.77 1009.69 1009.67 1009.70 1009.78 1009.90 1010.05 1010.23 1010.43 1010.64 1010.86 1011.09 1011.33 1011.58 1011.83 1012.09 1012.34 1012.59 1012.80 1012.96 1013.08 1013.13 1013.12 1013.06 1012.96
1019.28 1018.73 1018.17 1017.58 1016.95 1016.29 1015.59 1014.88 1014.16 1013.45 1012.78 1012.16 1011.59 1011.09 1010.65 1010.28 1009.97 1009.71 1009.52 1009.38 1009.30 1009.27 1009.30 1009.37 1009.49 1009.65 1009.83 1010.04 1010.27 1010.52 1010.78 1011.05 1011.33 1011.62 1011.91 1012.18 1012.44 1012.65 1012.83 1012.96 1013.04 1013.07 1013.08
1019.07 1018.55 1018.03 1017.48 1016.89 1016.25 1015.58 1014.88 1014.16 1013.45 1012.76 1012.12 1011.52 1010.99 1010.52 1010.12 1009.78 1009.49 1009.26 1009.09 1008.97 1008.91 1008.90 1008.93 1009.01 1009.14 1009.30 1009.49 1009.71 1009.96 1010.22 1010.51 1010.80 1011.11 1011.42 1011.72 1012.01 1012.27 1012.50 1012.70 1012.87 1013.00 1013.11
1018.83 1018.35 1017.85 1017.31 1016.74 1016.11 1015.43 1014.72 1013.99 1013.25 1012.54 1011.87 1011.26 1010.71 1010.23 1009.82 1009.48 1009.20 1008.98 1008.81 1008.68 1008.61 1008.57 1008.58 1008.63 1008.72 1008.85 1009.01 1009.21 1009.44 1009.69 1009.97 1010.26 1010.57 1010.88 1011.20 1011.51 1011.80 1012.09 1012.35 1012.58 1012.80 1013.00
1018.59 1018.11 1017.62 1017.08 1016.49 1015.85 1015.15 1014.41 1013.64 1012.87 1012.13 1011.44 1010.81 1010.26 1009.79 1009.41 1009.09 1008.85 1008.66 1008.52 1008.42 1008.35 1008.32 1008.32 1008.34 1008.40 1008.50 1008.62 1008.78 1008.98 1009.20 1009.45 1009.72 1010.01 1010.31 1010.63 1010.94 1011.26 1011.58 1011.88 1012.18 1012.47 1012.74
1018.33 1017.85 1017.34 1016.78 1016.16 1015.48 1014.75 1013.97 1013.16 1012.36 1011.59 1010.88 1010.24 1009.70 1009.26 1008.90 1008.64 1008.45 1008.32 1008.23 1008.17 1008.14 1008.12 1008.12 1008.14 1008.17 1008.23 1008.31 1008.43 1008.57 1008.75 1008.96 1009.20 1009.45 1009.73 1010.03 1010.34 1010.67 1011.00 1011.33 1011.67 1012.01 1012.35
1018.05 1017.55 1017.01 1016.42 1015.77 1015.05 1014.28 1013.46 1012.63 1011.80 1011.02 1010.29 1009.66 1009.14 1008.72 1008.41 1008.20 1008.06 1007.99 1007.96 1007.95 1007.96 1007.96 1007.97 1007.97 1007.98 1008.00 1008.04 1008.11 1008.21 1008.33 1008.49 1008.68 1008.90 1009.15 1009.42 1009.72 1010.04 1010.38 1010.73 1011.10 1011.47 1011.84
1017.75 1017.22 1016.65 1016.03 1015.35 1014.61 1013.82 1012.99 1012.15 1011.32 1010.53 1009.82 1009.20 1008.69 1008.30 1008.02 1007.84 1007.75 1007.72 1007.73 1007.75 1007.78 1007.80 1007.80 1007.80 1007.78 1007.77 1007.76 1007.78 1007.82 1007.90 1008.01 1008.16 1008.34 1008.56 1008.81 1009.09 1009.40 1009.74 1010.11 1010.48 1010.88 1011.27
1017.41 1016.85 1016.26 1015.62 1014.94 1014.21 1013.44 1012.63 1011.82 1011.01 1010.25 1009.56 1008.95 1008.46 1008.08 1007.81 1007.64 1007.56 1007.53 1007.55 1007.58 1007.60 1007.61 1007.60 1007.56 1007.51 1007.46 1007.41 1007.38 1007.37 1007.40 1007.47 1007.58 1007.74 1007.94 1008.17 1008.45 1008.77 1009.11 1009.48 1009.87 1010.28 1010.68
1017.03 1016.45 1015.86 1015.24 1014.59 1013.90 1013.18 1012.44 1011.69 1010.95 1010.23 1009.57 1008.99 1008.50 1008.12 1007.83 1007.64 1007.52 1007.46 1007.44 1007.43 1007.42 1007.38 1007.33 1007.25 1007.15 1007.04 1006.94 1006.87 1006.82 1006.81 1006.85 1006.94 1007.08 1007.27 1007.51 1007.79 1008.12 1008.48 1008.86 1009.27 1009.69 1010.10
1016.62 1016.04 1015.46 1014.88 1014.30 1013.69 1013.07 1012.44 1011.78 1011.13 1010.49 1009.88 1009.32 1008.83 1008.42 1008.09 1007.84 1007.65 1007.52 1007.42 1007.33 1007.24 1007.13 1007.00 1006.86 1006.69 1006.53 1006.38 1006.25 1006.16 1006.12 1006.14 1006.22 1006.36 1006.56 1006.81 1007.12 1007.46 1007.85 1008.26 1008.69 1009.12 1009.55
1016.21 1015.64 1015.09 1014.58 1014.08 1013.59 1013.10 1012.59 1012.06 1011.52 1010.97 1010.42 1009.89 1009.40 1008.95 1008.56 1008.22 1007.94 1007.70 1007.49 1007.30 1007.10 1006.90 1006.68 1006.45 1006.22 1005.99 1005.77 1005.60 1005.47 1005.40 1005.40 1005.47 1005.61 1005.83 1006.10 1006.44 1006.81 1007.23 1007.67 1008.12 1008.57 1009.02
1015.82 1015.26 1014.76 1014.32 1013.93 1013.57 1013.21 1012.85 1012.46 1012.04 1011.59 1011.11 1010.61 1010.11 1009.63 1009.17 1008.75 1008.36 1008.01 1007.69 1007.38 1007.07 1006.77 1006.45 1006.13 1005.82 1005.52 1005.24 1005.01 1004.84 1004.74 1004.72 1004.78 1004.92 1005.15 1005.45 1005.80 1006.21 1006.65 1007.11 1007.58 1008.05 1008.51
1015.47 1014.93 1014.48 1014.12 1013.83 1013.59 1013.37 1013.15 1012.89 1012.59 1012.24 1011.83 1011.37 1010.88 1010.37 1009.87 1009.38 1008.90 1008.46 1008.03 1007.62 1007.22 1006.82 1006.42 1006.03 1005.64 1005.27 1004.93 1004.64 1004.42 1004.28 1004.23 1004.27 1004.40 1004.62 1004.92 1005.28 1005.69 1006.14 1006.62 1007.10 1007.58 1008.05
1015.20 1014.67 1014.26 1013.96 1013.76 1013.62 1013.52 1013.41 1013.28 1013.09 1012.83 1012.49 1012.08 1011.61 1011.11 1010.59 1010.06 1009.54 1009.04 1008.55 1008.08 1007.62 1007.16 1006.70 1006.24 1005.79 1005.36 1004.97 1004.63 1004.36 1004.17 1004.07 1004.07 1004.17 1004.36 1004.63 1004.97 1005.37 1005.80 1006.26 1006.73 1007.20 1007.66
1015.02 1014.50 1014.11 1013.85 1013.71 1013.65 1013.63 1013.62 1013.58 1013.48 1013.30 1013.03 1012.68 1012.26 1011.79 1011.29 1010.77 1010.25 1009.74 1009.25 1008.76 1008.28 1007.80 1007.32 1006.83 1006.35 1005.88 1005.45 1005.06 1004.73 1004.48 1004.33 1004.27 1004.31 1004.45 1004.66 1004.95 1005.30 1005.68 1006.09 1006.52 1006.95 1007.39
1014.95 1014.43 1014.05 1013.81 1013.70 1013.68 1013.72 1013.77 1013.79 1013.76 1013.65 1013.45 1013.17 1012.81 1012.40 1011.96 1011.49 1011.02 1010.56 1010.10 1009.65 1009.20 1008.74 1008.27 1007.79 1007.30 1006.81 1006.35 1005.92 1005.54 1005.24 1005.02 1004.89 1004.85 1004.91 1005.05 1005.26 1005.53 1005.84 1006.18 1006.53 1006.91 1007.29
1014.98 1014.46 1014.09 1013.86 1013.76 1013.76 1013.82 1013.90 1013.97 1013.98 1013.93 1013.80 1013.58 1013.31 1012.97 1012.61 1012.23 1011.84 1011.46 1011.08 1010.70 1010.31 1009.90 1009.47 1009.02 1008.55 1008.06 1007.58 1007.13 1006.71 1006.36 1006.07 1005.87 1005.76 1005.73 1005.78 1005.90 1006.07 1006.29 1006.53 1006.81 1007.10 1007.42
1015.12 1014.61 1014.24 1014.02 1013.92 1013.92 1013.99 1014.09 1014.17 1014.22 1014.21 1014.13 1013.98 1013.78 1013.53 1013.26 1012.97 1012.68 1012.39 1012.11 1011.81 1011.50 1011.16 1010.80 1010.39 1009.95 1009.48 1009.01 1008.54 1008.10 1007.70 1007.37 1007.11 1006.93 1006.82 1006.79 1006.82 1006.89 1007.01 1007.16 1007.34 1007.55 1007.79
1015.36 1014.87 1014.52 1014.30 1014.21 1014.21 1014.28 1014.38 1014.47 1014.54 1014.56 1014.52 1014.43 1014.29 1014.12 1013.93 1013.73 1013.53 1013.33 1013.12 1012.91 1012.67 1012.41 1012.09 1011.74 1011.33 1010.90 1010.44 1009.98 1009.53 1009.12 1008.76 1008.46 1008.23 1008.06 1007.96 1007.92 1007.92 1007.95 1008.02 1008.11 1008.24 1008.40
1015.67 1015.23 1014.91 1014.72 1014.64 1014.65 1014.72 1014.82 1014.92 1015.00 1015.04 1015.03 1014.98 1014.88 1014.77 1014.63 1014.49 1014.35 1014.22 1014.07 1013.92 1013.73 1013.51 1013.25 1012.93 1012.57 1012.16 1011.73 1011.29 1010.85 1010.45 1010.08 1009.77 1009.52 1009.33 1009.19 1009.09 1009.04 1009.02 1009.03 1009.06 1009.12 1009.21
1016.04 1015.66 1015.39 1015.24 1015.19 1015.22 1015.30 1015.41 1015.52 1015.60 1015.65 1015.66 1015.63 1015.56 1015.47 1015.36 1015.25 1015.14 1015.03 1014.92 1014.79 1014.63 1014.43 1014.19 1013.90 1013.57 1013.19 1012.79 1012.38 1011.97 1011.59 1011.24 1010.95 1010.70 1010.51 1010.36 1010.26 1010.19 1010.14 1010.12 1010.11 1010.12 1010.17
1016.41 1016.11 1015.92 1015.82 1015.82 1015.88 1015.98 1016.10 1016.22 1016.31 1016.36 1016.38 1016.35 1016.29 1016.21 1016.11 1016.00 1015.89 1015.78 1015.66 1015.53 1015.36 1015.17 1014.94 1014.67 1014.35 1014.00 1013.63 1013.25 1012.88 1012.53 1012.22 1011.96 1011.74 1011.57 1011.45 1011.35 1011.29 1011.24 1011.21 1011.19 1011.19 1011.20
1016.76 1016.55 1016.43 1016.40 1016.44 1016.54 1016.67 1016.81 1016.94 1017.04 1017.10 1017.12 1017.10 1017.03 1016.95 1016.84 1016.72 1016.60 1016.47 1016.33 1016.17 1016.00 1015.80 1015.57 1015.30 1014.99 1014.67 1014.32 1013.98 1013.65 1013.34 1013.07 1012.84 1012.66 1012.52 1012.42 1012.36 1012.32 1012.29 1012.27 1012.26 1012.25 1012.26
1017.04 1016.91 1016.86 1016.89 1016.98 1017.12 1017.28 1017.44 1017.59 1017.70 1017.77 1017.80 1017.78 1017.72 1017.63 1017.52 1017.40 1017.26 1017.12 1016.96 1016.79 1016.61 1016.40 1016.16 1015.90 1015.61 1015.31 1014.99 1014.68 1014.38 1014.10 1013.87 1013.67 1013.52 1013.41 1013.34 1013.30 1013.29 1013.28 1013.28 1013.29 1013.30 1013.31
Thickness
5674 5672 5668 5665 5662 5659 5656 5653 5650 5648 5646 5643 5641 5640 5638 5636 5635 5632 5631 5630 5629 5629 5628 5627 5627 5626 5626 5626 5625 5625 5624 5624 5623 5625 5625 5624 5623 5623 5623 5623 5624 5625 5627
5671 5668 5665 5661 5657 5654 5651 5649 5646 5643 5641 5639 5637 5635 5633 5631 5630 5628 5626 5624 5623 5623 5622 5621 5621 5620 5619 5619 5618 5618 5618 5618 5618 5617 5619 5618 5618 5618 5618 5619 5620 5621 5622
5666 5663 5660 5657 5653 5650 5647 5644 5641 5638 5636 5633 5631 5629 5628 5626 5624 5623 5621 5620 5619 5618 5617 5616 5615 5614 5613 5612 5612 5613 5613 5613 5612 5612 5613 5611 5612 5612 5612 5613 5615 5616 5617
5661 5658 5655 5652 5649 5646 5642 5638 5635 5633 5630 5628 5626 5624 5622 5620 5619 5617 5615 5614 5613 5612 5611 5610 5609 5608 5607 5606 5606 5606 5606 5606 5607 5607 5607 5607 5607 5607 5607 5608 5610 5611 5612
5656 5653 5650 5647 5644 5640 5637 5633 5630 5626 5624 5621 5620 5618 5616 5614 5613 5611 5610 5608 5607 5605 5604 5603 5602 5601 5601 5600 5600 5600 5600 5600 5601 5601 5602 5602 5602 5601 5602 5604 5605 5606 5607
5651 5648 5645 5641 5637 5634 5631 5627 5623 5620 5617 5614 5613 5612 5610 5608 5606 5603 5602 5602 5601 5600 5599 5598 5597 5596 5594 5593 5593 5593 5593 5594 5595 5595 5596 5597 5598 5597 5598 5598 5599 5599 5600
5646 5642 5638 5635 5631 5628 5624 5620 5617 5614 5611 5608 5607 5606 5605 5603 5599 5597 5594 5595 5595 5595 5594 5593 5593 5592 5590 5590 5589 5587 5587 5587 5587 5590 5592 5592 5593 5593 5592 5592 5593 5593 5595
5639 5636 5632 5628 5625 5621 5618 5615 5612 5609 5606 5603 5602 5600 5598 5596 5593 5591 5589 5589 5590 5590 5589 5588 5588 5588 5586 5586 5586 5585 5585 5585 5583 5583 5586 5588 5588 5587 5586 5586 5587 5587 5589
5633 5630 5626 5623 5619 5615 5612 5609 5606 5603 5600 5598 5596 5594 5592 5591 5587 5586 5584 5585 5585 5585 5584 5583 5583 5582 5580 5577 5579 5580 5581 5581 5579 5577 5578 5578 5579 5579 5578 5578 5579 5579 5581
5626 5623 5620 5617 5613 5610 5607 5604 5600 5597 5594 5592 5590 5589 5588 5586 5583 5580 5578 5580 5581 5580 5579 5578 5575 5575 5573 5570 5572 5574 5574 5575 5574 5573 5572 5572 5572 5572 5571 5572 5573 5573 5575
5619 5616 5613 5610 5606 5603 5600 5596 5593 5591 5588 5586 5584 5583 5583 5581 5577 5574 5572 5574 5574 5575 5574 5573 5571 5567 5566 5564 5564 5566 5566 5566 5567 5568 5568 5568 5568 5567 5566 5566 5567 5566 5568
5611 5608 5605 5602 5599 5596 5592 5589 5586 5583 5581 5580 5578 5577 5576 5575 5572 5569 5567 5565 5566 5567 5567 5567 5565 5561 5559 5557 5556 5556 5556 5555 5558 5560 5560 5561 5562 5561 5560 5560 5560 5560 5560
5602 5600 5597 5595 5591 5588 5585 5582 5579 5577 5575 5573 5571 5570 5569 5568 5566 5562 5560 5558 5558 5559 5560 5558 5556 5553 5551 5550 5548 5547 5547 5549 5550 5552 5553 5554 5555 5555 5553 5552 5552 5552 5553
5595 5592 5589 5587 5584 5580 5577 5575 5572 5570 5568 5566 5564 5563 5562 5560 5558 5556 5554 5553 5550 5550 5551 5549 5547 5545 5543 5541 5541 5541 5541 5541 5542 5543 5544 5545 5545 5545 5544 5545 5544 5544 5545
5587 5584 5581 5578 5576 5573 5570 5566 5565 5563 5560 5558 5558 5556 5554 5552 5550 5547 5545 5545 5544 5542 5542 5542 5541 5540 5538 5536 5535 5534 5533 5533 5532 5533 5534 5534 5535 5535 5535 5535 5535 5536 5537
5579 5576 5573 5571 5568 5565 5562 5559 5553 5552 5549 5547 5546 5545 5544 5542 5539 5537 5535 5534 5533 5532 5532 5532 5531 5531 5529 5528 5527 5526 5525 5524 5523 5523 5524 5524 5525 5525 5525 5526 5527 5528 5529
5571 5568 5565 5563 5561 5558 5556 5554 5550 5545 5540 5538 5537 5536 5534 5532 5530 5528 5526 5525 5523 5522 5524 5524 5522 5521 5519 5518 5517 5516 5516 5515 5514 5514 5514 5514 5514 5515 5516 5517 5518 5519 5520
5561 5558 5557 5555 5553 5551 5549 5546 5544 5542 5539 5535 5530 5527 5525 5523 5521 5520 5518 5516 5516 5515 5515 5514 5512 5511 5509 5508 5507 5507 5506 5505 5505 5504 5504 5504 5505 5506 5507 5508 5509 5509 5510
5552 5550 5548 5547 5545 5543 5541 5538 5536 5533 5531 5528 5525 5521 5517 5515 5513 5511 5509 5510 5509 5507 5506 5504 5503 5502 5501 5499 5499 5498 5497 5497 5496 5496 5496 5495 5496 5497 5498 5499 5500 5499 5500
5543 5539 5538 5538 5537 5535 5532 5530 5528 5525 5523 5521 5518 5514 5511 5509 5508 5505 5503 5502 5501 5499 5497 5495 5493 5492 5491 5490 5490 5489 5488 5488 5488 5488 5488 5487 5487 5488 5489 5490 5490 5491 5491
5535 5532 5528 5529 5528 5527 5524 5522 5520 5517 5515 5513 5509 5505 5501 5501 5500 5498 5495 5494 5493 5491 5489 5487 5485 5484 5483 5482 5481 5480 5480 5480 5480 5480 5480 5479 5479 5479 5479 5480 5481 5481 5482
5526 5524 5522 5521 5519 5518 5516 5514 5512 5509 5507 5504 5501 5497 5492 5492 5492 5490 5488 5486 5485 5483 5481 5479 5477 5476 5475 5474 5473 5472 5472 5472 5472 5471 5471 5471 5470 5470 5470 5470 5471 5471 5471
5518 5516 5514 5512 5510 5507 5506 5504 5503 5501 5499 5496 5494 5491 5489 5487 5485 5483 5481 5478 5476 5475 5473 5471 5470 5468 5467 5466 5465 5464 5464 5463 5462 5462 5461 5461 5461 5461 5461 5461 5462 5462 5462
5509 5507 5506 5503 5501 5499 5498 5496 5494 5492 5490 5488 5486 5484 5482 5480 5477 5475 5473 5470 5468 5467 5465 5463 5462 5460 5459 5457 5456 5455 5454 5453 5453 5453 5452 5452 5451 5451 5451 5452 5452 5452 5452
5501 5499 5497 5495 5493 5491 5490 5488 5486 5485 5482 5480 5478 5476 5474 5472 5469 5467 5464 5462 5460 5458 5457 5455 5454 5452 5451 5450 5448 5447 5445 5443 5442 5442 5442 5442 5442 5442 5442 5443 5443 5443 5443
5492 5490 5488 5487 5485 5483 5481 5479 5478 5476 5474 5472 5470 5468 5466 5464 5462 5459 5456 5454 5452 5451 5448 5447 5445 5444 5442 5440 5438 5437 5435 5434 5433 5433 5433 5433 5433 5433 5434 5434 5434 5434 5435